Hourly Data Report for October 04, 2017

All times are specified in Local Standard Time (LST). Add 1 hour to adjust for Daylight Saving Time where and when it is observed.

POWELL RIVER
BRITISH COLUMBIA

49°50'04.400" N
124°29'48.500" W
125.00 m
1046392
71720
VOP

Download Data

Hourly Data (October 2017)
Hourly Data Report for October 4, 2017
Temp Definition
°C
Dew Point Temp Definition
°C
Rel Hum Definition
%
Wind Dir Definition
10's deg

Wind Spd Definition
km/h
Visibility Definition
km
Stn Press Definition
kPa
Hmdx Definition


Wind Chill Definition


Weather Definition


TIME
00:00 3.9 3.1 94 LegendMM LegendMM   100.85     LegendNANA
01:00 6.1 5.6 96 LegendMM LegendMM   100.88     LegendNANA
02:00 4.9 4.3 96 LegendMM LegendMM   100.86     LegendNANA
03:00 5.0 4.6 97 LegendMM LegendMM   100.83     LegendNANA
04:00 4.6 4.2 97 LegendMM LegendMM   100.79     LegendNANA
05:00 5.0 4.6 98 LegendMM LegendMM   100.76     LegendNANA
06:00 3.3 3.0 98 LegendMM LegendMM   100.74     LegendNANA
07:00 4.0 3.7 98 LegendMM LegendMM   100.77     LegendNANA
08:00 6.9 6.5 98 LegendMM LegendMM   100.74     LegendNANA
09:00 11.3 9.5 89 LegendMM LegendMM   100.73     LegendNANA
10:00 12.5 8.0 74 LegendMM LegendMM   100.72     LegendNANA
11:00 12.1 8.0 76 LegendMM LegendMM   100.71     LegendNANA
12:00 13.7 7.2 65 LegendMM LegendMM   100.66     LegendNANA
13:00 14.4 5.6 55 LegendMM LegendMM   100.61     LegendNANA
14:00 15.6 6.7 55 LegendMM LegendMM   100.59     LegendNANA
15:00 16.7 5.5 48 LegendMM LegendMM   100.59     LegendNANA
16:00 16.9 3.9 42 LegendMM LegendMM   100.58     LegendNANA
17:00 13.6 4.5 54 LegendMM LegendMM   100.58     LegendNANA
18:00 11.0 5.7 70 LegendMM LegendMM   100.60     LegendNANA
19:00 8.4 5.0 79 LegendMM LegendMM   100.60     LegendNANA
20:00 7.5 5.2 85 LegendMM LegendMM   100.63     LegendNANA
21:00 6.7 5.5 92 LegendMM LegendMM   100.65     LegendNANA
22:00 6.6 4.9 89 LegendMM LegendMM   100.66     LegendNANA
23:00 5.9 5.0 94 LegendMM LegendMM   100.67     LegendNANA

Notes on Data Quality.

Legend

  • E = Estimated
  • M = Missing
  • NA = Not Available
  • ‡ = Partner data that is not subject to review by the National Climate Archives
Date modified: